Tracking 29892 objects as of 21-Nov-2024
HD Live streaming from Space Station
objects crossing your sky now

COSMOS 249 DEB

Track COSMOS 249 DEB now!
10-day predictions


NORAD ID: 3912
Int'l Code: 1968-091BQ
Perigee: 785.1 km
Apogee: 1,968.9 km
Inclination: 62.3 °
Period: 113.1 minutes
Semi major axis: 7747 km
RCS: 0.0292 m2 (small)
Launch date: October 20, 1968
Source: Commonwealth of Independent States (former USSR) (CIS)
Launch site: TYURATAM MISSILE AND SPACE COMPLEX (TTMTR)

Note: This is SATELLITE DEBRIS
Your satellite tracking list
Your tracking list is empty




NASA's NSSDC Master Catalog

Two Line Element Set (TLE):
1 03912U 68091BQ  24316.03994756  .00003601  00000-0  53375-2 0  9993
2 03912  62.2591 221.9868 0763969 308.8086  44.7015 12.72975255571044
Source of the keplerian elements: AFSPC